Location: Newark
(42.8481°N, 0.4872°E)
Time: 23:45:30
(UTC+00:00)

Transit 2A Rocket - Pass Details

Date: 02 November 2020
Orbit: 588 x 914 km, 66.7° (Epoch: 29 November)

Event Time Altitude Azimuth Distance (km) Brightness Sun altitude
Rises 17:38:18 0° 324° (NW) 3,239 8.6 -9.6°
Reaches altitude 10° 17:40:51 10° 319° (NW) 2,253 7.8 -10.0°
Maximum altitude 17:45:45 48° 246° (WSW) 900 5.9 -10.9°
Drops below altitude 10° 17:50:12 10° 172° (S) 2,047 7.3 -11.7°
Sets 17:52:26 0° 167° (SSE) 2,912 8.0 -12.1°
